Temp
-6 -6 -6 -6 -6 -7 -8 -8 -7 -7 -7 -7 -6 -6 -6 -6 -6 -6 -6 -6 -6 -6 -6 -6 -6 -6 -6 -6 -6 -6 -6 -6 -8 -8 -8 -8 -8 -8 -6 -6 -8 -9 -8 -8 -8
-7 -6 -6 -6 -7 -8 -8 -8 -7 -7 -7 -7 -6 -6 -6 -6 -6 -6 -6 -6 -6 -6 -6 -6 -6 -6 -6 -6 -6 -6 -6 -8 -9 -9 -9 -9 -8 -8 -7 -6 -8 -9 -9 -9 -9
-7 -7 -7 -7 -7 -8 -8 -8 -7 -7 -7 -7 -6 -6 -6 -6 -6 -6 -6 -6 -6 -6 -7 -7 -7 -7 -7 -7 -7 -7 -8 -9 -11 -11 -11 -11 -10 -10 -8 -8 -8 -10 -10 -9 -9
-7 -7 -7 -7 -7 -8 -8 -8 -7 -7 -7 -7 -7 -7 -7 -6 -7 -7 -7 -7 -7 -7 -7 -7 -8 -8 -8 -8 -8 -8 -9 -11 -12 -13 -13 -12 -11 -11 -10 -9 -9 -10 -11 -9 -10
-7 -7 -7 -7 -8 -8 -8 -8 -7 -7 -7 -7 -6 -6 -7 -7 -7 -7 -8 -8 -8 -8 -8 -8 -8 -8 -9 -9 -9 -10 -11 -13 -13 -13 -13 -13 -13 -13 -11 -10 -11 -11 -11 -10 -10
-7 -7 -7 -7 -7 -7 -7 -7 -7 -7 -7 -7 -7 -7 -7 -8 -8 -8 -9 -9 -8 -8 -9 -9 -9 -9 -9 -10 -11 -12 -13 -14 -14 -14 -14 -13 -13 -13 -13 -12 -11 -11 -11 -11 -10
-7 -7 -7 -7 -7 -7 -7 -7 -7 -7 -7 -7 -8 -8 -8 -9 -9 -9 -9 -9 -10 -10 -10 -10 -10 -10 -10 -12 -13 -14 -14 -14 -14 -14 -14 -14 -13 -14 -14 -13 -13 -12 -12 -11 -12
-7 -7 -7 -7 -7 -7 -7 -7 -7 -7 -8 -8 -8 -9 -10 -10 -10 -10 -10 -10 -11 -11 -11 -11 -11 -12 -12 -13 -14 -14 -14 -15 -15 -15 -14 -14 -13 -14 -14 -14 -14 -13 -12 -12 -11
-8 -8 -8 -7 -7 -7 -7 -7 -7 -8 -8 -9 -9 -10 -10 -10 -11 -11 -12 -11 -11 -11 -11 -11 -13 -13 -14 -14 -14 -14 -14 -14 -14 -15 -15 -14 -13 -14 -14 -14 -14 -14 -13 -13 -12
-8 -8 -8 -8 -7 -7 -7 -7 -7 -8 -8 -9 -10 -10 -11 -12 -11 -12 -12 -12 -12 -12 -12 -12 -13 -14 -14 -14 -14 -14 -14 -15 -15 -16 -15 -15 -14 -14 -14 -14 -14 -14 -14 -13 -13
-8 -8 -8 -8 -7 -7 -7 -8 -8 -9 -9 -10 -10 -11 -12 -12 -12 -12 -12 -12 -13 -13 -12 -14 -14 -14 -14 -14 -14 -14 -14 -15 -16 -17 -16 -16 -15 -14 -14 -14 -14 -14 -14 -14 -13
-8 -8 -8 -7 -8 -7 -7 -8 -8 -9 -9 -10 -11 -12 -12 -13 -13 -12 -13 -13 -13 -13 -13 -14 -15 -15 -14 -14 -15 -15 -15 -16 -16 -18 -18 -17 -16 -15 -15 -15 -15 -14 -14 -14 -14
-8 -8 -8 -8 -7 -8 -8 -8 -9 -9 -10 -11 -12 -12 -13 -13 -13 -13 -13 -13 -13 -14 -14 -14 -15 -15 -15 -15 -15 -15 -15 -16 -17 -18 -18 -17 -16 -15 -16 -15 -15 -15 -14 -14 -14
-9 -8 -8 -8 -8 -8 -9 -9 -10 -10 -10 -11 -12 -12 -13 -13 -14 -14 -14 -13 -13 -14 -14 -15 -16 -16 -16 -15 -15 -15 -16 -16 -17 -18 -18 -18 -16 -16 -16 -16 -16 -16 -15 -15 -15
-9 -9 -9 -9 -9 -9 -9 -10 -10 -10 -11 -12 -12 -13 -13 -13 -13 -14 -14 -13 -13 -14 -14 -15 -16 -16 -16 -15 -16 -16 -16 -17 -17 -18 -18 -18 -19 -15 -17 -17 -16 -16 -15 -15 -15
-9 -9 -9 -9 -10 -10 -10 -10 -11 -11 -12 -13 -13 -13 -14 -14 -15 -15 -14 -14 -14 -14 -15 -15 -17 -15 -15 -16 -16 -16 -17 -17 -18 -18 -19 -19 -20 -16 -17 -18 -17 -17 -17 -15 -15
-9 -9 -10 -10 -10 -11 -11 -11 -12 -12 -12 -12 -13 -14 -14 -14 -15 -15 -14 -14 -14 -14 -14 -16 -17 -16 -16 -16 -17 -16 -18 -18 -18 -19 -19 -20 -19 -18 -19 -19 -19 -19 -19 -17 -16
-10 -10 -10 -11 -11 -11 -12 -12 -12 -12 -12 -13 -13 -14 -14 -14 -14 -14 -14 -14 -15 -14 -14 -14 -16 -16 -16 -17 -17 -18 -18 -19 -20 -20 -19 -20 -19 -19 -20 -19 -19 -19 -19 -19 -17
-10 -10 -11 -11 -12 -12 -12 -13 -13 -12 -12 -12 -13 -13 -14 -14 -14 -14 -14 -14 -14 -15 -15 -15 -15 -17 -16 -17 -17 -18 -18 -19 -20 -20 -20 -19 -19 -19 -20 -20 -19 -19 -18 -19 -17
-11 -11 -11 -12 -12 -13 -13 -13 -13 -12 -13 -13 -13 -13 -13 -14 -14 -15 -14 -14 -14 -15 -15 -15 -15 -17 -17 -17 -17 -17 -18 -19 -19 -20 -20 -19 -18 -19 -19 -20 -19 -19 -18 -18 -18
-11 -12 -12 -12 -12 -13 -14 -14 -14 -13 -13 -13 -13 -13 -14 -14 -14 -15 -15 -15 -14 -15 -15 -15 -16 -17 -17 -17 -17 -18 -17 -18 -19 -19 -19 -18 -18 -18 -19 -18 -18 -18 -18 -17 -17
-12 -12 -12 -12 -13 -13 -14 -13 -14 -14 -14 -13 -13 -13 -14 -14 -14 -15 -15 -15 -15 -15 -15 -16 -15 -16 -17 -17 -17 -18 -18 -18 -18 -18 -19 -18 -18 -18 -18 -18 -18 -17 -17 -17 -17
-12 -13 -13 -13 -13 -14 -15 -15 -14 -14 -14 -13 -14 -14 -14 -15 -13 -15 -15 -16 -15 -15 -15 -15 -15 -16 -16 -16 -17 -17 -18 -18 -18 -18 -18 -18 -17 -18 -18 -18 -18 -18 -17 -17 -17
-12 -13 -13 -14 -14 -13 -14 -15 -15 -15 -14 -14 -14 -14 -14 -15 -15 -15 -15 -15 -16 -16 -16 -16 -15 -16 -17 -17 -17 -17 -18 -17 -17 -18 -18 -17 -17 -18 -18 -17 -17 -17 -17 -17 -17
-12 -12 -13 -14 -15 -15 -14 -15 -15 -15 -15 -14 -14 -14 -14 -14 -14 -15 -15 -15 -16 -16 -16 -16 -15 -16 -16 -18 -18 -18 -18 -17 -17 -17 -17 -18 -17 -18 -17 -16 -16 -16 -17 -17 -17
-13 -13 -13 -14 -15 -15 -15 -15 -15 -15 -14 -15 -14 -15 -15 -14 -14 -14 -14 -15 -15 -15 -15 -15 -15 -15 -15 -17 -17 -17 -17 -17 -17 -17 -17 -17 -16 -16 -17 -16 -16 -17 -16 -16 -16
-14 -14 -13 -15 -15 -15 -15 -15 -15 -15 -16 -15 -14 -14 -15 -15 -15 -15 -15 -15 -15 -15 -15 -15 -15 -15 -15 -16 -16 -17 -17 -16 -16 -17 -17 -17 -17 -17 -16 -16 -16 -16 -16 -17 -16
Height
5852 5849 5846 5843 5840 5838 5837 5835 5834 5832 5830 5828 5826 5824 5822 5820 5818 5816 5814 5812 5810 5807 5805 5803 5800 5797 5795 5794 5792 5790 5789 5787 5785 5786 5788 5796 5792 5799 5802 5806 5807 5808 5819 5829 5835
5850 5848 5845 5841 5838 5836 5835 5833 5831 5829 5827 5825 5824 5822 5819 5816 5814 5811 5809 5806 5803 5800 5797 5794 5791 5787 5785 5783 5780 5778 5776 5773 5772 5772 5774 5782 5780 5788 5792 5794 5798 5800 5809 5818 5824
5849 5846 5843 5840 5837 5835 5833 5832 5829 5827 5825 5823 5821 5818 5816 5813 5811 5807 5803 5800 5796 5792 5788 5785 5782 5778 5774 5771 5769 5767 5763 5760 5759 5759 5762 5768 5767 5774 5781 5788 5791 5792 5797 5807 5814
5848 5845 5842 5839 5835 5833 5832 5830 5828 5825 5823 5820 5817 5814 5811 5808 5806 5801 5796 5793 5789 5784 5780 5776 5772 5767 5764 5760 5756 5755 5750 5749 5750 5749 5753 5755 5758 5761 5766 5774 5778 5782 5786 5799 5803
5847 5844 5841 5837 5834 5832 5831 5829 5826 5823 5820 5816 5812 5808 5804 5801 5798 5793 5789 5784 5779 5775 5770 5766 5762 5757 5753 5749 5745 5743 5741 5740 5741 5741 5742 5744 5748 5751 5754 5758 5765 5770 5774 5786 5794
5847 5844 5840 5836 5833 5831 5829 5827 5823 5819 5816 5812 5807 5803 5798 5794 5788 5784 5781 5777 5772 5767 5762 5757 5751 5747 5744 5739 5736 5733 5732 5733 5734 5733 5734 5735 5743 5741 5742 5740 5749 5757 5762 5772 5782
5846 5842 5839 5835 5833 5830 5827 5824 5820 5815 5811 5806 5801 5796 5790 5786 5779 5773 5770 5766 5760 5756 5752 5748 5743 5737 5734 5729 5727 5725 5726 5725 5725 5725 5725 5728 5736 5734 5735 5735 5738 5746 5753 5759 5770
5845 5841 5837 5834 5831 5827 5823 5819 5815 5810 5805 5799 5794 5788 5783 5777 5771 5767 5762 5757 5752 5746 5741 5737 5732 5728 5725 5721 5719 5719 5719 5719 5719 5717 5717 5721 5733 5727 5725 5727 5728 5734 5741 5748 5761
5843 5839 5836 5832 5828 5824 5818 5813 5809 5804 5799 5793 5787 5781 5778 5771 5766 5759 5754 5749 5743 5739 5734 5728 5723 5718 5715 5713 5713 5713 5712 5711 5712 5707 5707 5710 5722 5719 5717 5720 5724 5726 5729 5740 5748
5841 5837 5834 5829 5825 5819 5814 5808 5802 5798 5792 5786 5780 5776 5772 5765 5760 5755 5749 5743 5736 5730 5725 5720 5715 5711 5709 5707 5707 5706 5704 5702 5701 5700 5696 5699 5708 5709 5712 5715 5717 5719 5720 5727 5736
5838 5834 5830 5825 5820 5814 5809 5803 5799 5792 5786 5781 5775 5769 5763 5757 5751 5747 5742 5736 5730 5724 5719 5714 5709 5704 5703 5701 5699 5698 5695 5692 5692 5687 5681 5687 5693 5700 5702 5706 5706 5707 5707 5714 5724
5835 5830 5825 5821 5815 5810 5804 5798 5792 5787 5780 5774 5767 5762 5758 5751 5746 5741 5736 5731 5724 5718 5711 5708 5702 5700 5698 5696 5693 5688 5685 5681 5676 5674 5667 5675 5679 5689 5691 5694 5697 5697 5698 5703 5712
5831 5826 5821 5816 5810 5804 5798 5792 5785 5778 5774 5767 5762 5757 5752 5747 5740 5735 5729 5724 5719 5713 5706 5700 5696 5695 5692 5690 5686 5682 5677 5670 5666 5662 5660 5661 5667 5675 5676 5682 5683 5687 5690 5692 5702
5826 5821 5816 5811 5806 5799 5792 5785 5779 5773 5768 5763 5757 5751 5745 5739 5735 5727 5722 5717 5711 5706 5700 5695 5690 5688 5685 5683 5678 5673 5666 5661 5657 5653 5653 5651 5651 5661 5663 5667 5668 5669 5671 5680 5689
5823 5817 5812 5806 5800 5794 5788 5781 5774 5768 5764 5760 5751 5745 5740 5734 5728 5724 5717 5712 5706 5701 5695 5689 5682 5680 5678 5675 5670 5666 5659 5654 5650 5646 5643 5643 5642 5653 5649 5652 5651 5657 5659 5663 5674
5818 5813 5807 5801 5795 5788 5781 5775 5769 5765 5758 5754 5748 5742 5738 5732 5725 5721 5715 5710 5702 5696 5690 5683 5677 5672 5671 5668 5663 5657 5652 5648 5643 5639 5636 5637 5637 5642 5639 5635 5638 5641 5642 5648 5661
5813 5808 5802 5796 5790 5783 5777 5771 5765 5760 5755 5751 5746 5739 5734 5728 5722 5718 5712 5705 5698 5691 5685 5682 5674 5668 5666 5664 5659 5649 5644 5641 5637 5633 5632 5630 5629 5631 5629 5625 5627 5630 5633 5634 5646
5809 5803 5797 5791 5785 5778 5772 5766 5761 5757 5751 5745 5739 5735 5729 5723 5718 5713 5706 5700 5694 5687 5679 5675 5673 5664 5662 5657 5653 5645 5639 5635 5629 5627 5626 5625 5625 5624 5620 5619 5622 5626 5629 5630 5638
5803 5797 5791 5785 5779 5773 5767 5762 5755 5751 5747 5742 5737 5730 5726 5720 5713 5707 5702 5696 5690 5683 5675 5668 5668 5659 5653 5652 5648 5642 5636 5632 5626 5623 5619 5620 5621 5616 5615 5616 5616 5618 5622 5627 5633
5798 5792 5786 5780 5772 5767 5762 5757 5750 5746 5742 5737 5731 5727 5721 5715 5711 5704 5698 5693 5685 5680 5672 5666 5661 5657 5652 5649 5644 5639 5633 5627 5622 5617 5614 5613 5611 5612 5612 5612 5612 5617 5619 5625 5631
5791 5785 5779 5772 5766 5761 5756 5750 5746 5740 5737 5734 5728 5722 5717 5711 5708 5702 5695 5689 5681 5674 5669 5659 5656 5655 5648 5644 5639 5635 5629 5623 5618 5614 5610 5608 5608 5609 5611 5611 5614 5613 5615 5622 5629
5785 5779 5772 5766 5760 5752 5748 5742 5740 5736 5732 5728 5724 5718 5713 5707 5704 5699 5693 5683 5676 5670 5664 5658 5650 5647 5645 5641 5636 5633 5628 5621 5615 5612 5607 5606 5608 5606 5607 5608 5609 5612 5613 5618 5626
5778 5772 5766 5760 5753 5747 5742 5737 5733 5730 5726 5722 5718 5714 5709 5704 5697 5694 5687 5681 5673 5667 5659 5654 5647 5639 5640 5638 5632 5630 5625 5617 5611 5604 5602 5602 5604 5603 5603 5604 5605 5609 5610 5613 5620
5768 5762 5758 5753 5746 5740 5735 5732 5727 5723 5720 5716 5712 5708 5703 5699 5694 5689 5683 5677 5669 5662 5656 5648 5645 5639 5635 5632 5626 5623 5618 5612 5607 5602 5599 5596 5597 5599 5598 5600 5602 5605 5607 5607 5614
5758 5753 5748 5745 5741 5735 5728 5723 5720 5717 5715 5710 5706 5703 5697 5694 5690 5685 5679 5673 5666 5658 5652 5645 5641 5635 5631 5627 5622 5618 5613 5611 5606 5601 5596 5594 5592 5593 5591 5593 5597 5601 5601 5601 5606
5749 5744 5740 5736 5733 5730 5723 5717 5713 5709 5706 5703 5699 5698 5692 5688 5683 5678 5673 5667 5663 5657 5649 5642 5636 5630 5626 5621 5617 5615 5610 5606 5602 5597 5591 5585 5582 5582 5585 5586 5589 5592 5593 5596 5600
5740 5735 5730 5729 5725 5722 5717 5711 5706 5701 5702 5695 5690 5687 5686 5682 5677 5672 5667 5663 5657 5651 5644 5637 5630 5624 5620 5614 5612 5610 5605 5601 5598 5593 5585 5579 5577 5576 5577 5579 5582 5586 5587 5589 5592
Wind_Speed
17 18 20 21 19 13 12 13 15 16 17 16 16 17 18 19 21 23 24 24 25 27 29 31 32 34 35 36 38 40 42 44 44 48 52 53 60 56 59 58 52 52 48 45 45
18 19 21 22 19 13 11 14 16 17 17 17 18 20 21 23 25 27 28 30 31 32 34 35 36 38 40 41 43 44 44 43 41 44 49 49 61 60 61 63 57 53 50 46 47
19 20 22 22 18 13 11 13 17 16 17 20 22 24 26 27 27 29 30 31 32 34 35 37 38 41 43 44 43 43 43 41 37 40 41 42 51 53 62 62 60 53 51 48 50
19 21 23 23 19 14 12 15 18 19 20 23 25 30 32 32 31 31 33 33 34 35 36 37 40 42 43 43 44 42 43 40 32 36 35 38 44 48 56 63 61 57 53 51 52
21 22 23 24 20 17 16 18 21 25 27 28 29 33 36 36 35 36 36 37 37 39 39 41 42 42 43 43 44 42 40 35 31 35 35 35 37 38 47 58 59 59 55 53 55
20 19 20 22 21 19 18 20 23 25 26 29 31 35 38 38 39 40 38 38 38 39 43 43 41 41 41 43 43 38 35 31 30 31 31 33 32 37 39 54 58 58 59 54 56
16 16 18 21 21 22 25 27 27 28 29 31 34 37 39 39 42 42 41 40 41 43 42 40 39 40 38 38 37 34 30 33 34 36 33 30 25 35 38 43 55 58 59 60 54
13 14 15 17 21 25 31 32 29 30 32 33 36 37 38 40 42 41 43 41 43 41 39 37 37 36 35 33 30 31 31 30 35 39 41 37 23 31 38 42 42 56 61 60 58
14 14 15 18 25 28 32 34 34 33 35 36 37 37 37 39 39 42 42 43 43 41 37 36 33 32 30 29 27 28 32 35 36 39 40 41 30 31 35 36 42 50 61 60 60
16 18 20 23 28 31 35 35 35 35 36 38 37 38 36 35 39 37 38 39 40 39 38 36 31 28 25 26 25 26 32 37 38 40 43 42 36 34 39 38 36 41 57 62 61
17 18 22 25 29 33 36 36 36 37 38 36 36 35 33 35 34 36 35 35 35 36 36 30 30 28 25 28 31 28 38 42 40 41 47 42 40 37 36 37 46 46 49 54 64
19 22 24 27 32 34 36 37 38 38 36 34 35 33 31 34 33 37 36 33 34 33 35 29 28 28 27 28 29 36 39 43 40 38 47 44 42 40 43 42 44 49 55 52 50
23 24 26 28 34 36 38 38 38 40 35 36 32 32 32 29 33 33 32 32 36 34 35 30 28 28 30 29 31 35 36 35 35 38 38 40 43 42 47 47 47 50 56 56 51
25 27 28 31 34 36 38 38 38 37 32 30 34 34 32 34 32 34 32 34 37 38 34 27 24 27 31 30 33 35 35 35 32 35 33 36 37 34 39 42 46 52 61 60 53
30 32 33 35 35 36 38 38 37 33 35 33 35 34 35 35 34 34 34 37 38 37 34 28 26 27 27 27 32 34 33 31 30 32 35 32 33 29 32 37 41 48 63 68 60
34 35 38 40 39 37 38 37 35 33 33 32 32 33 34 34 31 30 34 34 36 36 30 26 27 26 25 30 33 31 30 30 30 25 29 25 25 20 30 36 44 49 51 74 71
35 36 39 40 41 39 39 37 33 32 32 32 31 32 34 32 25 26 32 34 37 38 34 17 19 26 27 27 26 30 27 27 27 27 25 25 30 27 26 24 33 35 39 56 60
39 40 39 40 41 40 39 38 32 31 31 31 32 32 31 31 26 25 31 33 36 37 36 29 9 21 19 24 23 25 29 25 29 30 25 25 23 19 23 23 23 23 24 37 48
42 42 41 42 42 41 39 38 32 31 32 33 32 32 28 30 30 28 31 34 35 37 39 35 18 21 27 24 27 28 27 23 26 26 28 21 20 21 12 17 16 23 21 30 39
42 40 40 43 43 41 38 38 34 29 30 32 31 30 29 29 30 28 33 35 37 37 39 36 30 17 21 24 26 27 34 28 23 25 19 11 10 11 11 14 18 21 17 22 32
42 42 43 43 44 41 38 37 32 30 28 30 29 30 29 31 28 29 34 37 38 40 39 39 34 19 20 24 26 32 39 39 30 22 23 13 7 9 10 17 21 24 25 21 27
39 41 43 44 44 43 37 36 33 31 28 29 27 30 30 31 28 30 34 38 39 39 38 36 37 24 18 20 25 29 30 30 36 29 20 19 3 8 12 15 20 26 30 27 25
42 42 44 45 44 40 37 35 34 31 27 28 26 27 29 28 34 31 34 35 38 37 37 38 36 34 21 22 24 26 32 36 28 33 28 22 10 11 18 19 22 23 29 26 30
47 45 42 40 40 38 36 32 30 29 26 28 29 28 31 24 29 33 33 34 35 35 36 38 35 29 30 26 33 26 29 32 25 24 34 27 15 15 14 14 16 23 27 28 31
49 48 44 38 30 34 39 36 31 30 25 29 31 28 33 30 29 31 34 36 34 35 34 37 36 33 28 21 24 21 26 26 29 34 31 26 24 14 16 11 17 20 32 28 32
47 46 44 40 33 34 38 40 34 31 29 28 32 29 31 33 34 34 35 36 36 34 35 35 37 35 30 22 20 16 22 25 27 29 31 29 25 20 20 19 14 18 18 30 36
47 45 43 38 37 38 36 38 37 34 26 29 33 35 32 33 32 34 35 35 37 36 36 37 37 39 33 26 21 18 22 25 27 29 33 34 29 14 13 19 15 11 25 25 41
Wind_Direction
352 352 350 350 350 337 329 330 332 335 336 335 338 338 339 339 337 332 326 320 316 310 305 303 302 300 298 295 290 286 283 284 275 265 255 244 243 238 234 237 235 235 232 232 231
356 353 353 353 352 343 339 340 340 337 336 337 341 343 342 338 335 332 328 321 316 311 308 305 304 302 299 295 292 290 289 286 277 266 260 250 245 240 234 233 235 232 229 224 229
356 359 0 359 352 343 339 340 339 342 343 344 345 344 337 330 328 326 322 316 310 306 304 302 303 303 300 297 294 292 287 285 272 261 258 250 246 242 238 233 232 233 228 220 224
2 1 357 356 353 343 335 337 340 344 345 342 334 329 330 329 325 325 320 316 311 307 305 304 304 303 302 299 293 289 285 280 262 260 254 248 241 241 234 234 233 231 230 220 216
6 4 6 9 7 358 349 344 340 336 333 330 327 325 323 321 321 318 317 319 313 308 306 304 302 304 303 297 293 290 288 279 264 257 256 246 240 237 233 229 231 230 229 220 218
8 12 19 23 22 15 4 353 344 340 336 330 324 322 320 318 317 317 316 316 310 307 307 304 303 302 301 297 292 288 282 267 263 258 258 255 243 238 229 226 223 225 229 221 217
15 24 26 24 21 13 3 352 345 337 331 326 323 321 318 317 316 315 317 314 312 310 308 305 303 301 299 293 291 286 278 266 254 253 257 257 248 242 236 230 224 221 226 224 216
10 6 10 11 4 355 349 346 343 338 334 329 324 320 319 317 316 315 317 314 313 314 312 309 304 299 295 289 290 287 278 267 264 264 262 260 248 247 240 233 231 221 220 227 219
349 349 355 353 347 344 343 342 339 335 334 328 324 318 319 318 320 318 317 315 316 315 314 310 303 301 299 298 297 294 291 279 271 268 263 258 243 236 240 237 234 229 221 219 224
350 356 350 343 340 343 338 337 336 335 330 329 321 322 324 317 312 311 311 316 318 319 318 313 308 303 300 301 300 290 295 289 278 269 264 254 244 243 235 236 238 235 230 223 220
339 342 338 340 341 343 339 334 331 330 325 326 324 325 318 315 313 311 313 317 323 322 317 311 304 299 297 297 294 290 289 288 281 272 265 258 249 238 239 236 238 238 237 233 221
331 333 335 336 341 340 335 332 331 326 326 328 330 326 325 319 320 316 318 318 325 325 320 314 295 290 287 285 289 288 298 300 284 272 266 261 250 239 242 242 241 238 239 238 234
329 333 334 337 338 335 334 332 330 329 331 331 333 329 326 323 319 316 318 320 328 331 324 312 298 289 289 285 295 304 308 298 284 271 271 268 257 249 245 246 245 241 237 238 234
328 332 332 333 335 334 334 333 331 329 331 332 329 328 330 323 320 322 323 326 330 331 327 310 296 292 284 288 299 314 305 299 288 279 273 265 263 244 242 239 242 239 234 237 232
326 327 329 329 331 333 334 333 331 330 330 329 329 329 328 331 328 325 325 328 329 329 327 318 304 299 291 303 304 312 308 301 291 290 274 271 268 228 247 243 250 250 240 233 231
326 328 328 330 329 330 332 332 331 331 332 330 328 327 323 326 323 325 323 325 328 329 333 320 308 297 302 305 319 323 312 302 299 296 287 279 275 241 263 272 259 247 242 230 232
326 326 326 328 327 329 329 330 331 331 329 330 330 325 320 323 319 315 321 332 334 333 335 329 303 292 296 296 316 329 320 306 303 292 297 278 278 280 276 263 239 239 238 223 218
327 324 324 327 327 326 326 327 326 326 326 331 332 332 328 328 320 324 330 335 337 334 335 335 311 287 286 311 339 336 322 311 306 300 291 286 292 285 284 247 247 236 232 229 210
326 321 323 325 323 322 322 320 320 322 326 329 333 337 333 330 325 327 329 334 336 338 337 336 339 311 300 319 329 341 332 308 308 300 293 297 295 297 274 247 259 234 227 217 212
323 320 319 321 321 318 318 316 315 319 327 331 335 340 337 335 330 326 330 332 333 338 337 335 332 305 290 305 320 333 336 318 309 303 304 297 295 279 261 249 260 241 235 209 217
321 319 323 322 320 316 313 310 312 317 323 328 336 342 339 333 330 328 329 329 331 334 339 334 333 324 307 310 318 327 336 326 304 306 303 312 266 257 252 250 251 245 242 233 212
321 319 321 322 317 314 311 307 309 312 315 320 333 340 336 332 334 326 328 326 330 333 336 335 333 324 315 311 316 327 341 334 319 306 302 306 207 250 273 246 246 240 244 241 229
322 321 322 321 316 314 311 308 305 305 309 311 321 330 329 331 336 333 330 328 327 331 334 335 339 327 311 314 319 318 320 324 319 309 305 300 292 263 252 255 252 240 245 248 240
323 320 319 318 313 314 314 311 304 302 304 303 309 318 319 326 321 331 331 333 330 332 330 331 336 326 315 317 313 317 318 328 321 307 294 312 296 273 225 251 244 238 242 252 241
321 318 317 314 309 317 315 314 307 301 304 303 304 312 314 320 319 322 329 332 333 334 328 329 334 331 329 318 316 309 306 317 316 317 315 313 304 264 251 268 234 252 241 247 240
314 314 313 308 303 309 307 306 309 305 301 304 304 312 314 320 321 325 327 327 335 334 329 330 333 336 342 317 312 299 299 308 316 320 318 310 308 282 253 243 248 235 264 241 241
310 307 308 303 301 304 301 299 300 299 302 301 299 302 310 312 318 321 323 327 332 332 331 331 331 334 339 324 310 306 291 300 312 310 314 313 317 304 274 253 244 255 293 252 249